Flag for Finland Weather past 2 weeks in Lahti, Finland

Now
61 °F

Scattered clouds.


Feels Like: 61 °F
Forecast: 45 / 53 °F
Wind: 10 mph from Southwest

Location: Utti

Current Time: May 22, 2015 at 1:13:55 PM

Latest Report: May 22, 2015 at 12:50 PM


Visibility: N/A

Pressure: 30.09 "Hg

Humidity: 48%

Dew point: 41 °F

Location of LahtiLocation

Historic Weather in Lahti — Graph

°F

Lahti temperature yesterday

Maximum temperature yesterday: 54 °F (at 7:20 PM)
Minimum temperature yesterday: 45 °F (at 2:50 AM)
Average temperature yesterday: 47 °F

Past Weeks' High & Low Weather Summary

 TemperatureHumidityPressure
High63 °F (May 20, 3:20 PM)100% (May 7, 11:23 AM)30.15 "Hg (May 7, 11:23 AM)
Low34 °F (May 10, 4:20 AM)31% (May 10, 3:20 PM)29.27 "Hg (May 13, 10:20 PM)
Average47 °F79%29.79 "Hg
* Reported May 7 11:23 AM — May 22 11:50 AM, Lahti, Weather by CustomWeather, © 2015

Note: Actual official high and low records may vary slightly from our data, if they occured in-between our weather recording intervals... More about our weather records

Advertising

Lahti weather history for previous 24 hours

 ConditionsComfort  
Time TempWeatherWind HumidityBarometerVisibility
11:50 AM
Fri, May 22
57 °FScattered clouds.10 mph59%30.09 "HgN/A
11:20 AM59 °FPassing clouds.10 mph51%30.09 "HgN/A
10:50 AM55 °FPassing clouds.9 mph67%30.12 "HgN/A
10:20 AM55 °FPassing clouds.8 mph72%30.12 "HgN/A
9:50 AM54 °FPassing clouds.7 mph72%30.12 "HgN/A
9:20 AM50 °FPassing clouds.6 mph88%30.12 "HgN/A
8:50 AM45 °FFog.3 mph100%30.09 "Hg2 mi
8:20 AM43 °FPartly sunny.5 mph100%30.09 "Hg1 mi
7:50 AM43 °FPartly sunny.3 mph100%30.09 "Hg0 mi
7:20 AM43 °FPartly sunny.3 mph100%30.09 "Hg0 mi
6:50 AM41 °FScattered clouds.2 mph100%30.09 "Hg1 mi
6:20 AM41 °FPartly sunny.3 mph100%30.09 "Hg0 mi
5:56 AM41 °FScattered clouds.1 mph100%30.07 "Hg0 mi
5:20 AM39 °FFog.1 mph100%30.07 "Hg0 mi
4:50 AM43 °FPassing clouds.3 mph100%30.07 "Hg5 mi
4:20 AM43 °FLight fog.5 mph100%30.07 "Hg5 mi
3:50 AM43 °FLight fog.3 mph100%30.07 "Hg4 mi
3:20 AM43 °FFog.3 mph100%30.07 "Hg2 mi
2:50 AM43 °FPassing clouds.5 mph100%30.07 "Hg4 mi
2:20 AM45 °FClear.5 mph100%30.07 "Hg10 mi
1:20 AM46 °FPassing clouds.6 mph93%30.04 "HgN/A
11:50 PM
Thu, May 21
46 °FClear.3 mph93%30.04 "Hg10 mi
11:20 PM46 °FClear.3 mph100%30.01 "Hg10 mi
10:50 PM48 °FSunny.6 mph94%30.01 "Hg10 mi
10:20 PM48 °FSunny.6 mph94%30.01 "Hg10 mi
9:50 PM50 °FSunny.8 mph88%30.01 "Hg10 mi
9:20 PM50 °FSprinkles. Overcast.6 mph88%30.01 "HgN/A
8:50 PM52 °FBroken clouds.8 mph77%30.01 "HgN/A
8:20 PM52 °FSunny.5 mph77%30.01 "Hg10 mi
7:50 PM54 °FPassing clouds.6 mph72%29.98 "HgN/A
7:20 PM54 °FPassing clouds.6 mph72%29.98 "HgN/A
6:50 PM52 °FPassing clouds.6 mph77%29.98 "HgN/A
6:20 PM52 °FScattered clouds.5 mph77%29.98 "HgN/A
5:50 PM52 °FPartly sunny.7 mph77%29.98 "HgN/A
5:20 PM50 °FPartly sunny.5 mph82%29.98 "HgN/A
4:50 PM50 °FBroken clouds.5 mph88%29.98 "HgN/A
4:20 PM50 °FPartly sunny.5 mph88%29.98 "HgN/A
3:50 PM48 °FBroken clouds.6 mph94%29.98 "HgN/A
3:20 PM48 °FLight rain. Partly sunny.6 mph94%29.98 "HgN/A
2:50 PM46 °FLight rain. Partly sunny.6 mph100%29.98 "HgN/A
2:20 PM46 °FLight rain. Broken clouds.6 mph93%29.95 "HgN/A
1:50 PM46 °FLight rain. More clouds than sun.6 mph93%29.98 "HgN/A
1:20 PM45 °FLight rain. More clouds than sun.6 mph100%29.95 "HgN/A
Weather by CustomWeather, © 2015

See weather overviewHow to use our weather pages